Airfield :
LOGIN :

Register | Disclaimer

   EN    FR    IT 

 










Legend :    VFR   Marginal VFR   IFR   Intensive IFR   Very Intensive IFR
Visi :
Ceiling :
>= 8 km
>= 3000ft
5 to 8 km
1000 to 3000 ft
1500m to 5 km
500 to 1000 ft
800 to 1500m
200 to 500 ft
< 800m
< 200 ft
Symbols :   Thunderstorms  Fog  Heavy snow  Heavy precipitations  Wind > 20 kt
SIGMETs :     Misc.  Thunderstorms  Icing  Turbulence  Mountain Waves  Volcanic Ashes







- Airport Elevation : 76 ft
- IATA code : KID


ESMK - Kristianstad

CURRENT METAR :
  • 221120Z 31016G26KT 9999 FEW038 11/03 Q1022

EXPIRED METARs :
  • 221050Z 31014KT 9999 FEW043 11/04 Q1021
  • 221020Z AUTO 30015KT 9999 FEW036/// 11/03 Q////
  • 220950Z AUTO 30017KT 9999 FEW033/// SCT043/// 12/05 Q////
  • 220920Z AUTO 29017KT 9999 FEW029/// 12/05 Q////
  • 220850Z AUTO 29012KT 9999 FEW029/// 11/07 Q////

TAF TAF ESMK
Valid from the 22 at 12:00 until the 22 at 20:00 UTC


221114Z 2212/2220 29015KT 9999 SCT030
TEMPO 2212/2216 30018G30KT
No reported NOTAMs for that airfield.



MET'MAP, your aeronautical weather chart ! - Copyright ORBIFLY December 2007 - Disclaimer

ORBIFLY MET'MAP TEAM :

Programming & Development : Alexandra Zaïnal
Concept & Development : Baudouin d'Aumeries
Co-Development & Prog : Marc-Olivier Méhu
Technical & hardware support : Manuel Goepfert

Contact : metmap@orbifly.com




SOURCES & CREDITS :

   NOAA